Weather in Lekhovo

Russia / Pskov Oblast     55°52′11″N   30°21′51″E
temp.,
°C
wind,
m/s
gust,
m/s
humid.,
%
clouds,
%
prec.,
mm/h
press.,
hPa
HPBL,
m
16 june, wed
wed1600:00+14nw229797 0.0 101340
03:00+12nw239835 0.0 101560
06:00+12nnw27926 0.0 1016213
09:00+17n345294 0.0 1017610
12:00+20nnw2343100 0.0 10181500
15:00+22n333498 0.0 10181903
18:00+20nne3342100 0.0 10181569
21:00+15nne226885 0.0 102018
17 june, thu
thu1700:00+12nne227014 0.0 102112
03:00+10ne11765 0.0 102310
06:00+12ene11730 0.0 102419
09:00+19ene11500 0.0 1024416
12:00+24se11380 0.0 10251502
15:00+25sw013422 0.0 10251742
18:00+24se003852 0.0 10241696
21:00+18ssw1173100 0.0 102511
18 june, fri
fri1800:00+15ssw11762 0.0 102611
03:00+14ssw11790 0.0 102610
06:00+15sse22825 0.0 102755
09:00+21s34605 0.0 1027557
12:00+25ssw344416 0.0 10261520
15:00+26ssw34415 0.0 10251767
18:00+25ssw34495 0.0 10251531
21:00+19ssw23835 0.0 102547
19 june, sat
sat1900:00+16s25895 0.0 102686
03:00+14ssw25950 0.0 102780
06:00+15ssw25890 0.0 1027132
09:00+22s34640 0.0 1027553
12:00+25s34470 0.0 10261404
15:00+27s34445 0.0 10251655
18:00+26ssw33500 0.0 10241562
21:00+20s238571 0.0 102460
20 june, sun
sun2000:00+17s2592100 0.0 102589
03:00+15s26935 0.0 1025105
06:00+16s258912 0.0 1025143
09:00+22s346423 0.0 1024598
12:00+25s34495 0.0 10231579
15:00+27ssw344475 0.0 10221871
18:00+26sw33497 0.0 10211638
21:00+21s23803 0.0 102154